�������l�o���
Date,Time,MP-1(��Sv/h),MP-2(��Sv/h),MP-3(��Sv/h),MP-4(��Sv/h),MP-5(��Sv/h),MP-6(��Sv/h),MP-7(��Sv/h),MP-8(��Sv/h),����,����(m/s),���J
2016/11/07,00:00,1.119,1.942,1.310,2.178,1.519,0.581,1.069,0.984,�k�k��,6.0,��
2016/11/07,00:10,1.118,1.938,1.306,2.179,1.518,0.582,1.068,0.983,�k�k��,6.4,��
2016/11/07,00:20,1.118,1.940,1.308,2.183,1.521,0.582,1.071,0.987,�k�k��,5.8,��
2016/11/07,00:30,1.118,1.941,1.307,2.180,1.519,0.582,1.070,0.985,�k�k��,6.0,��
2016/11/07,00:40,1.118,1.941,1.308,2.180,1.518,0.581,1.070,0.986,�k�k��,6.3,��
2016/11/07,00:50,1.120,1.941,1.309,2.182,1.518,0.583,1.069,0.984,�k�k��,6.1,��
2016/11/07,01:00,1.118,1.941,1.308,2.181,1.519,0.582,1.069,0.983,�k�k��,6.4,��
2016/11/07,01:10,1.119,1.939,1.308,2.176,1.519,0.582,1.069,0.984,�k�k��,7.2,��
2016/11/07,01:20,1.119,1.942,1.307,2.179,1.515,0.583,1.069,0.985,�k�k��,6.4,��
2016/11/07,01:30,1.119,1.939,1.307,2.179,1.515,0.582,1.070,0.985,�k�k��,7.4,��
2016/11/07,01:40,1.119,1.941,1.305,2.178,1.516,0.582,1.068,0.984,�k��,7.4,��
2016/11/07,01:50,1.119,1.943,1.304,2.179,1.517,0.581,1.070,0.986,�k�k��,7.4,��
2016/11/07,02:00,1.116,1.939,1.308,2.179,1.519,0.581,1.069,0.987,�k��,6.9,��
2016/11/07,02:10,1.116,1.940,1.305,2.178,1.519,0.582,1.068,0.985,�k�k��,8.2,��
2016/11/07,02:20,1.117,1.944,1.307,2.178,1.520,0.583,1.069,0.985,�k��,9.4,��
2016/11/07,02:30,1.116,1.942,1.308,2.180,1.517,0.581,1.068,0.984,�k�k��,8.5,��
2016/11/07,02:40,1.116,1.943,1.305,2.178,1.520,0.579,1.068,0.984,�k�k��,7.5,��
2016/11/07,02:50,1.117,1.941,1.308,2.182,1.515,0.581,1.070,0.985,�k�k��,8.3,��
2016/11/07,03:00,1.117,1.938,1.305,2.181,1.515,0.582,1.070,0.984,�k�k��,9.7,��
2016/11/07,03:10,1.117,1.940,1.307,2.178,1.517,0.582,1.071,0.985,�k�k��,9.1,��
2016/11/07,03:20,1.118,1.940,1.306,2.182,1.517,0.581,1.069,0.985,�k�k��,8.9,��
2016/11/07,03:30,1.115,1.941,1.305,2.182,1.516,0.582,1.070,0.984,�k�k��,7.8,��
2016/11/07,03:40,1.119,1.942,1.306,2.179,1.517,0.583,1.068,0.985,�k�k��,8.8,��
2016/11/07,03:50,1.116,1.941,1.307,2.179,1.516,0.581,1.069,0.985,�k�k��,8.8,��
2016/11/07,04:00,1.116,1.942,1.307,2.182,1.517,0.582,1.066,0.984,�k�k��,9.7,��
2016/11/07,04:10,1.116,1.939,1.307,2.182,1.519,0.583,1.066,0.984,�k�k��,8.3,��
2016/11/07,04:20,1.119,1.939,1.307,2.178,1.516,0.582,1.069,0.983,�k�k��,8.3,��
2016/11/07,04:30,1.117,1.940,1.305,2.178,1.516,0.580,1.068,0.984,�k�k��,8.6,��
2016/11/07,04:40,1.115,1.939,1.306,2.181,1.515,0.582,1.066,0.985,�k�k��,8.9,��
2016/11/07,04:50,1.118,1.940,1.304,2.178,1.516,0.579,1.069,0.984,�k�k��,9.6,��
2016/11/07,05:00,1.116,1.939,1.308,2.176,1.519,0.579,1.069,0.985,�k�k��,8.5,��
2016/11/07,05:10,1.116,1.940,1.308,2.182,1.517,0.579,1.069,0.984,�k�k��,8.0,��
2016/11/07,05:20,1.116,1.938,1.308,2.180,1.517,0.581,1.069,0.985,�k�k��,8.3,��
2016/11/07,05:30,1.116,1.936,1.308,2.180,1.516,0.581,1.067,0.984,�k�k��,8.6,��
2016/11/07,05:40,1.116,1.941,1.305,2.178,1.516,0.580,1.067,0.984,�k�k��,7.8,��
2016/11/07,05:50,1.115,1.940,1.306,2.178,1.515,0.583,1.067,0.984,�k�k��,8.2,��
2016/11/07,06:00,1.115,1.938,1.305,2.176,1.515,0.580,1.069,0.984,�k�k��,7.4,��
2016/11/07,06:10,1.114,1.936,1.304,2.178,1.516,0.581,1.069,0.983,�k�k��,6.9,��
2016/11/07,06:20,1.117,1.936,1.305,2.177,1.516,0.579,1.069,0.985,�k�k��,6.7,��
2016/11/07,06:30,1.117,1.937,1.300,2.179,1.513,0.582,1.066,0.984,�k��,6.9,��
2016/11/07,06:40,1.116,1.940,1.302,2.180,1.517,0.580,1.068,0.984,�k��,7.1,��
2016/11/07,06:50,1.117,1.939,1.304,2.177,1.515,0.578,1.068,0.983,�k�k��,8.0,��
2016/11/07,07:00,1.118,1.939,1.301,2.181,1.514,0.581,1.068,0.984,�k�k��,9.1,��
2016/11/07,07:10,1.116,1.942,1.301,2.181,1.513,0.581,1.067,0.984,�k��,9.1,��
2016/11/07,07:20,1.116,1.937,1.303,2.179,1.515,0.580,1.068,0.983,�k��,7.7,��
2016/11/07,07:30,1.118,1.937,1.302,2.181,1.517,0.581,1.070,0.984,�k��,7.1,��
2016/11/07,07:40,1.116,1.940,1.305,2.179,1.517,0.580,1.069,0.983,�k��,7.1,��
2016/11/07,07:50,1.117,1.936,1.305,2.183,1.517,0.581,1.068,0.985,�k��,7.7,��
2016/11/07,08:00,1.116,1.938,1.305,2.180,1.521,0.581,1.070,0.985,�k��,6.7,��
2016/11/07,08:10,1.118,1.940,1.305,2.180,1.517,0.582,1.071,0.986,�k��,6.0,��
2016/11/07,08:20,1.116,1.935,1.304,2.181,1.516,0.581,1.069,0.987,�k�k��,5.8,��
2016/11/07,08:30,1.119,1.938,1.302,2.182,1.518,0.582,1.071,0.988,�k�k��,5.6,��
2016/11/07,08:40,1.119,1.940,1.307,2.181,1.518,0.582,1.072,0.985,�k�k��,5.2,��
2016/11/07,08:50,1.121,1.938,1.305,2.183,1.519,0.581,1.072,0.984,�k�k��,6.4,��
2016/11/07,09:00,1.123,1.930,1.307,2.183,1.520,0.581,1.068,0.985,�k�k��,4.9,��
2016/11/07,09:10,1.120,1.935,1.305,2.182,1.518,0.581,1.066,0.986,�k,5.5,��
2016/11/07,09:20,1.120,1.934,1.304,2.180,1.517,0.584,1.068,0.987,�k�k��,6.6,��
2016/11/07,09:30,1.121,1.936,1.302,2.182,1.516,0.583,1.069,0.984,�k,6.1,��
2016/11/07,09:40,1.119,1.941,1.306,2.182,1.517,0.581,1.068,0.985,�k�k��,6.6,��
2016/11/07,09:50,1.120,1.934,1.296,2.184,1.521,0.582,1.069,0.985,�k,5.5,��
2016/11/07,10:00,1.122,1.934,1.295,2.188,1.519,0.581,1.069,0.984,�k,7.2,��
2016/11/07,10:10,1.119,1.933,1.307,2.184,1.517,0.583,1.069,0.987,�k,6.9,��
2016/11/07,10:20,1.123,1.931,1.308,2.184,1.519,0.582,1.069,0.986,�k,6.6,��
2016/11/07,10:30,1.122,1.929,1.307,2.187,1.522,0.583,1.068,0.985,�k,6.3,��
2016/11/07,10:40,1.123,1.933,1.311,2.184,1.523,0.582,1.068,0.986,�k,6.6,��
2016/11/07,10:50,1.122,1.934,1.310,2.183,1.519,0.580,1.068,0.987,�k,6.4,��
2016/11/07,11:00,1.123,1.935,1.309,2.188,1.521,0.582,1.068,0.986,�k,5.3,��
2016/11/07,11:10,1.122,1.938,1.312,2.183,1.521,0.582,1.069,0.985,�k,6.6,��
2016/11/07,11:20,1.122,1.942,1.313,2.183,1.521,0.583,1.069,0.988,�k,6.4,��
2016/11/07,11:30,1.123,1.939,1.310,2.186,1.517,0.582,1.068,0.986,�k,5.2,��
2016/11/07,11:40,1.124,1.942,1.309,2.189,1.524,0.583,1.068,0.985,�k,5.5,��
2016/11/07,11:50,1.125,1.941,1.308,2.187,1.523,0.584,1.069,0.985,�k,5.0,��
2016/11/07,12:00,1.124,1.942,1.312,2.190,1.520,0.582,1.070,0.986,�k,4.4,��
2016/11/07,12:10,1.126,1.940,1.307,2.188,1.521,0.583,1.068,0.989,�k,4.1,��
2016/11/07,12:20,1.121,1.941,1.309,2.185,1.520,0.584,1.070,0.987,�k,4.7,��
2016/11/07,12:30,1.124,1.942,1.309,2.189,1.522,0.582,1.069,0.987,�k�k��,3.5,��
2016/11/07,12:40,1.119,1.943,1.313,2.188,1.520,0.585,1.071,0.988,�k�k��,3.8,��
2016/11/07,12:50,1.119,1.939,1.312,2.188,1.523,0.585,1.069,0.989,�k�k��,4.9,��
2016/11/07,13:00,1.120,1.936,1.312,2.187,1.520,0.584,1.069,0.986,�k�k��,3.0,��
2016/11/07,13:10,1.121,1.938,1.310,2.188,1.524,0.585,1.070,0.987,�k,2.8,��
2016/11/07,13:20,1.123,1.932,1.308,2.188,1.520,0.584,1.071,0.987,�k�k��,3.8,��
2016/11/07,13:30,1.122,1.937,1.311,2.186,1.524,0.584,1.072,0.986,�k�k��,4.1,��
2016/11/07,13:40,1.123,1.937,1.311,2.189,1.522,0.585,1.070,0.986,�k,3.8,��
2016/11/07,13:50,1.123,1.936,1.314,2.190,1.521,0.586,1.071,0.984,�k�k��,3.9,��
2016/11/07,14:00,1.124,1.940,1.313,2.187,1.525,0.584,1.069,0.983,�k�k��,3.8,��
2016/11/07,14:10,1.122,1.940,1.314,2.189,1.525,0.584,1.070,0.985,�k,4.4,��
2016/11/07,14:20,1.123,1.939,1.312,2.190,1.524,0.582,1.069,0.983,�k�k��,3.9,��
2016/11/07,14:30,1.123,1.940,1.312,2.188,1.525,0.585,1.072,0.982,�k�k��,3.1,��
2016/11/07,14:40,1.122,1.942,1.313,2.191,1.522,0.585,1.072,0.984,�k�k��,3.2,��
2016/11/07,14:50,1.126,1.939,1.314,2.189,1.522,0.585,1.070,0.985,�k�k��,2.8,��
2016/11/07,15:00,1.122,1.939,1.318,2.185,1.524,0.585,1.071,0.985,�k,3.0,��
2016/11/07,15:10,1.123,1.945,1.314,2.187,1.523,0.585,1.071,0.987,�k�k��,2.3,��
2016/11/07,15:20,1.123,1.945,1.316,2.189,1.524,0.585,1.071,0.987,�k�k��,3.0,��
2016/11/07,15:30,1.123,1.942,1.316,2.185,1.523,0.586,1.071,0.987,�k�k��,3.1,��
2016/11/07,15:40,1.125,1.944,1.317,2.190,1.523,0.584,1.072,0.988,�k�k��,3.0,��
2016/11/07,15:50,1.123,1.944,1.317,2.190,1.525,0.584,1.071,0.986,�k�k��,2.8,��
2016/11/07,16:00,1.119,1.945,1.314,2.189,1.524,0.585,1.072,0.986,�k�k��,3.1,��
2016/11/07,16:10,1.125,1.947,1.316,2.187,1.523,0.584,1.074,0.985,�k�k��,3.1,��
2016/11/07,16:20,1.122,1.946,1.315,2.186,1.525,0.583,1.072,0.986,�k�k��,2.5,��
2016/11/07,16:30,1.122,1.946,1.316,2.188,1.525,0.584,1.072,0.988,�k�k��,2.8,��
2016/11/07,16:40,1.122,1.946,1.316,2.187,1.525,0.584,1.072,0.987,�k�k��,2.7,��
2016/11/07,16:50,1.122,1.944,1.316,2.184,1.526,0.584,1.071,0.985,�k��,2.6,��
2016/11/07,17:00,1.123,1.946,1.314,2.189,1.523,0.583,1.072,0.986,�k�k��,3.2,��
2016/11/07,17:10,1.121,1.947,1.314,2.187,1.526,0.583,1.070,0.985,-,CALM,��
2016/11/07,17:20,1.120,1.946,1.313,2.187,1.525,0.582,1.072,0.984,-,CALM,��
2016/11/07,17:30,1.120,1.946,1.315,2.188,1.527,0.581,1.069,0.986,�k�k��,4.7,��
2016/11/07,17:40,1.118,1.945,1.313,2.184,1.525,0.583,1.071,0.985,�k��,5.2,��
2016/11/07,17:50,1.120,1.947,1.314,2.187,1.526,0.582,1.070,0.986,�k��,4.4,��
2016/11/07,18:00,1.119,1.941,1.315,2.186,1.527,0.583,1.071,0.986,�k��,5.2,��
2016/11/07,18:10,1.121,1.948,1.316,2.187,1.526,0.583,1.071,0.985,�k��,5.5,��
2016/11/07,18:20,1.119,1.945,1.313,2.184,1.525,0.583,1.072,0.985,�k��,4.9,��
2016/11/07,18:30,1.122,1.946,1.315,2.184,1.524,0.583,1.074,0.985,�k��,4.9,��
2016/11/07,18:40,1.121,1.947,1.315,2.184,1.524,0.583,1.071,0.984,�k��,4.4,��
2016/11/07,18:50,1.121,1.945,1.313,2.185,1.525,0.583,1.072,0.986,�k��,4.1,��
2016/11/07,19:00,1.122,1.945,1.312,2.186,1.525,0.583,1.072,0.986,�k��,4.1,��
2016/11/07,19:10,1.120,1.946,1.311,2.187,1.525,0.582,1.071,0.984,�k��,4.2,��
2016/11/07,19:20,1.120,1.945,1.314,2.187,1.524,0.583,1.071,0.984,���k��,4.1,��
2016/11/07,19:30,1.121,1.945,1.313,2.183,1.522,0.583,1.070,0.984,���k��,4.6,��
2016/11/07,19:40,1.118,1.946,1.313,2.183,1.523,0.583,1.071,0.985,���k��,4.1,��
2016/11/07,19:50,1.119,1.944,1.311,2.184,1.524,0.583,1.068,0.985,���k��,3.8,��
2016/11/07,20:00,1.119,1.945,1.313,2.184,1.522,0.583,1.071,0.987,���k��,2.8,��
2016/11/07,20:10,1.119,1.943,1.313,2.184,1.523,0.582,1.072,0.985,���k��,2.6,��
2016/11/07,20:20,1.117,1.945,1.314,2.185,1.524,0.582,1.072,0.985,���k��,2.2,��
2016/11/07,20:30,1.117,1.943,1.313,2.185,1.523,0.583,1.072,0.986,���k��,2.3,��
2016/11/07,20:40,1.117,1.944,1.312,2.187,1.525,0.583,1.069,0.986,���k��,2.6,��
2016/11/07,20:50,1.120,1.943,1.312,2.183,1.524,0.583,1.069,0.985,��,2.1,��
2016/11/07,21:00,1.119,1.943,1.312,2.184,1.520,0.583,1.070,0.986,���k��,1.7,��
2016/11/07,21:10,1.121,1.942,1.313,2.185,1.521,0.581,1.071,0.985,��,2.0,��
2016/11/07,21:20,1.118,1.940,1.312,2.185,1.524,0.583,1.068,0.986,��,2.0,��
2016/11/07,21:30,1.119,1.942,1.310,2.184,1.523,0.584,1.069,0.984,��,1.8,��
2016/11/07,21:40,1.120,1.944,1.312,2.184,1.522,0.584,1.071,0.986,���쐼,0.6,��
2016/11/07,21:50,1.116,1.941,1.311,2.184,1.520,0.583,1.070,0.986,�쐼,0.9,��
2016/11/07,22:00,1.119,1.943,1.308,2.187,1.522,0.583,1.070,0.985,���쐼,1.7,��
2016/11/07,22:10,1.118,1.946,1.311,2.185,1.523,0.582,1.067,0.987,��,2.6,��
2016/11/07,22:20,1.121,1.942,1.313,2.184,1.523,0.582,1.070,0.986,��,2.2,��
2016/11/07,22:30,1.119,1.945,1.311,2.184,1.519,0.584,1.070,0.986,��,2.2,��
2016/11/07,22:40,1.118,1.944,1.311,2.182,1.521,0.582,1.070,0.986,��,2.0,��
2016/11/07,22:50,1.118,1.945,1.310,2.182,1.523,0.581,1.070,0.984,��,1.7,��
2016/11/07,23:00,1.119,1.941,1.309,2.183,1.521,0.583,1.070,0.986,���k��,1.5,��
2016/11/07,23:10,1.118,1.942,1.313,2.180,1.521,0.582,1.069,0.985,���k��,1.5,��
2016/11/07,23:20,1.118,1.941,1.313,2.183,1.522,0.582,1.069,0.985,���k��,1.7,��
2016/11/07,23:30,1.120,1.942,1.313,2.180,1.524,0.582,1.067,0.986,��,1.8,��
2016/11/07,23:40,1.120,1.942,1.313,2.184,1.523,0.583,1.071,0.986,��,2.1,��
2016/11/07,23:50,1.121,1.941,1.311,2.186,1.521,0.584,1.071,0.984,���쐼,1.8,��
